Location: Akdamlar
(36.8729°N, 30.5187°E)
Time: 18:57:56
(UTC+00:00)

MOS 1 Rocket - Pass Details

Date: 18 September 2020
Orbit: 614 x 831 km, 97.4° (Epoch: 26 October)

Event Time Altitude Azimuth Distance (km) Brightness Sun altitude
Rises 17:20:44 0° 7° (N) 2,990 6.7 -16.7°
Reaches altitude 10° 17:23:01 10° 4° (N) 2,048 5.9 -17.1°
Maximum altitude 17:27:22 59° 285° (WNW) 727 3.7 -18.0°
Drops below altitude 10° 17:31:33 10° 206° (SSW) 1,971 5.7 -18.8°
Sets 17:33:43 0° 202° (SSW) 2,866 6.5 -19.2°
